Location: ????????????
(55.9958°N, 38.5625°E)
Time: 19:57:28
(UTC+00:00)

Daily predictions for brighter satellites

Satellite Brightness Start Highest point End
(mag) Time Altitude Azimuth Time Altitude Azimuth Time Altitude Azimuth
Meteor 1-28 Rocket 3.7 13:54:47 10° NNE 13:57:52 32° E 14:00:55 10° SSE
CORIOLIS 4.2 13:54:44 10° SE 13:59:58 56° ENE 14:05:12 10° N
Cosmos 1867 3.8 13:54:37 10° SW 14:00:04 74° NW 14:05:34 10° NE
ATLAS 2AS CENTAUR R/B 3.1 13:53:31 10° WNW 14:00:08 46° N 14:06:38 10° E
IRS-1C 4.4 13:56:55 10° SE 14:02:02 48° ENE 14:07:08 10° N
SJ-12 4.4 13:59:15 10° SE 14:02:40 33° ENE 14:06:06 10° N
ASTEX 1 4.2 13:58:06 10° N 14:02:50 54° WNW 14:07:33 10° SSW
Cosmos 1607 4.4 13:59:06 10° WSW 14:05:06 52° NNW 14:11:10 10° NE
Cosmos 2233 Rocket 4.3 13:59:07 10° SSE 14:05:08 49° E 14:11:12 10° NNE
Cosmos 2344 3.8 13:59:05 10° WNW 14:06:18 59° NNE 14:15:12 10° E
Cosmos 1725 Rocket 4.1 14:00:56 10° S 14:07:09 68° E 14:13:27 10° NNE
Cosmos 1943 Rocket 3.4 14:03:35 10° SSE 14:07:47 22° ESE 14:11:58 10° NE
Cosmos 2227 Rocket 3.9 14:05:27 10° WNW 14:09:42 21° NNW 14:13:57 10° NNE
Cosmos 841 Rocket 4.3 14:05:39 10° NNW 14:10:18 30° NE 14:14:55 10° ESE
Thor Agena Rocket 3.6 14:05:19 10° SSE 14:10:35 80° ENE 14:15:53 10° NNW
NOSS 3-3 (C) 4.3 14:05:21 10° WSW 14:10:59 62° NNW 14:17:55 10° NE
Cosmos 2082 Rocket 2.3 14:06:17 10° NNW 14:11:48 53° NE 14:17:18 10° SE
Cosmos 2061 Rocket 4.2 14:06:05 10° SSE 14:12:05 49° E 14:18:03 10° NNE
Cosmos 2173 Rocket 4.2 14:08:09 10° SSW 14:14:20 79° WNW 14:20:28 10° N
Resurs 01 Rocket 3.4 14:15:21 11° ENE 14:16:41 12° NE 14:18:28 10° NNE
JB-3 4.3 14:13:45 10° NNE 14:17:38 86° WNW 14:21:26 10° SSW
Cosmos 1782 Rocket 3.7 14:13:54 10° S 14:18:12 52° E 14:22:31 10° NNE
ATLAS CENTAUR R/B 1.3 14:16:05 10° WSW 14:19:29 56° NW 14:22:41 11° NE
Cosmos 2278 Rocket 3.2 14:15:56 10° SSE 14:20:30 26° ESE 14:24:52 11° NE
Cosmos 2058 3.6 14:17:12 10° N 14:20:43 29° ENE 14:24:14 10° SE
Cosmos 1300 Rocket 3.6 14:16:32 10° S 14:20:50 60° E 14:25:09 10° NNE
USA 215 3.9 14:17:39 10° SE 14:24:05 58° SSW 14:30:34 10° WNW
Cosmos 921 Rocket 3.2 14:19:55 10° SSW 14:24:18 79° WNW 14:28:48 10° NNE
Cosmos 468 Rocket 4.1 14:19:44 10° NNW 14:24:54 55° NE 14:29:59 10° SE
SL-08 R/B 4.4 14:21:38 10° S 14:27:41 75° E 14:33:46 10° NNE
Cosmos 1346 Rocket 4.2 14:26:45 10° NNE 14:29:06 16° ENE 14:29:44 15° ENE
MOS 1 Rocket 3.5 14:25:41 10° SE 14:29:48 41° ENE 14:34:09 10° N
GEOS 3 Rocket 4.4 14:25:58 10° NE 14:30:57 45° NNW 14:36:02 10° W
Cosmos 1975 Rocket 3.0 14:27:13 10° NNW 14:31:36 85° ENE 14:35:59 10° SSE
Cosmos 1908 Rocket 3.9 14:27:56 10° SSW 14:32:21 70° WNW 14:36:49 10° N
ARIANE 5 R/B 2.4 14:27:26 10° SSE 14:32:24 75° ENE 14:37:27 10° NNW
ATLAS 5 CENTAUR R/B 3.9 14:28:45 10° WNW 14:32:28 29° SW 14:36:54 10° S
Cosmos 1802 Rocket 4.3 14:28:57 10° SSW 14:35:24 78° WNW 14:41:51 10° N
Cosmos 2263 Rocket 3.9 14:31:47 10° WNW 14:36:02 21° NNW 14:40:18 10° NNE
AQUARIUS 4.1 14:31:51 10° SSE 14:36:11 58° ENE 14:40:32 10° N
Cosmos 1844 Rocket 3.7 14:32:18 10° WSW 14:37:32 40° NW 14:42:49 10° NNE
SAR-Lupe-1 3.9 14:33:59 10° SSE 14:37:32 75° ENE 14:41:09 10° NNW
Cosmos 1602 3.6 14:35:48 10° N 14:38:40 35° ENE 14:41:32 10° SE
CZ-2D R/B 4.0 14:37:55 10° SE 14:41:45 37° ENE 14:45:41 10° N
Iridium 4 Rocket 4.1 14:37:20 10° SSW 14:42:07 53° W 14:46:33 10° N
USA 281 4.0 14:37:43 12° E 14:42:50 32° NE 14:48:31 10° NNW
ARIANE 6 FM1 Upper Stage 3.4 14:41:33 10° W 14:45:18 39° NNW 14:47:52 18° NE
Cosmos 1862 3.6 14:42:12 10° N 14:45:34 34° ENE 14:48:54 10° SE
PSLV R/B 4.1 14:43:28 10° SE 14:47:01 31° ENE 14:50:35 10° N
COSMOS 2406 3.3 14:41:28 10° NNW 14:47:05 55° NE 14:52:40 10° SE
SAR-Lupe-4 3.7 14:43:49 10° SSE 14:47:24 77° WSW 14:51:00 10° NNW
Cosmos 2016 Rocket 4.3 14:43:11 10° SSW 14:49:30 74° WNW 14:55:56 10° N
Cosmos 407 Rocket 3.7 14:47:43 10° S 14:52:40 48° ESE 14:56:54 14° NE
Okean 1 Rocket 4.4 14:51:44 10° SE 14:54:12 19° E 14:54:12 19° E
IRS-P3 4.1 14:49:39 10° SSE 14:55:00 83° ENE 15:00:22 10° NNW
SL-19 R/B 4.3 14:50:15 10° SE 14:55:11 46° ENE 15:00:13 10° N
Geosat FO 3.9 14:52:59 10° SE 14:55:52 83° NE 14:58:46 10° NNW
ISS -2.0 14:54:14 10° SSW 14:56:50 21° SSE 14:58:02 17° SE
CZ-2D R/B 3.0 14:54:55 10° S 14:58:03 69° WSW 15:01:13 10° NNW
TIMED 4.4 14:56:16 10° SSW 15:00:31 78° ESE 15:04:00 15° NNE
Cosmos 1812 2.4 15:00:00 10° SSE 15:02:42 37° E 15:02:46 37° E
Cosmos 540 Rocket 4.0 14:58:30 10° NNW 15:03:35 61° WSW 15:08:36 10° S
SMAP 3.9 15:00:25 10° S 15:04:59 54° W 15:09:35 10° NNW
SL-16 R/B 2.9 14:59:15 10° NNE 15:05:29 67° WNW 15:11:40 10° SW
Cosmos 2084 Rocket 3.4 15:01:43 10° WSW 15:05:55 81° NNW 15:08:16 26° NE
Cosmos 44 Rocket 3.9 15:02:41 10° S 15:07:06 37° ESE 15:09:01 26° ENE
Cosmos 2297 Rocket 3.9 15:03:22 10° NW 15:07:14 18° N 15:09:36 15° NE
SPOT 1/Viking Rocket 3.5 15:02:24 10° SSE 15:07:32 66° ENE 15:12:43 10° NNW
Meteor 2-3 Rocket 4.0 15:04:39 10° N 15:10:08 44° ENE 15:15:31 10° SE
SJ 16-02 2.2 15:07:43 10° SSE 15:11:19 27° ESE 15:11:19 27° ESE
Nadezhda 4 Rocket 3.9 15:05:53 10° N 15:12:11 65° ENE 15:18:22 10° SSE
YAOGAN 1 2.6 15:08:48 10° SE 15:12:56 52° ENE 15:17:06 10° N
Cosmos 1869 2.8 15:11:57 10° S 15:15:28 88° ESE 15:18:26 14° NNE
Aureole 3 Rocket 2.3 15:13:14 10° S 15:16:14 57° E 15:17:32 32° NNE
Landsat 7 4.5 15:12:35 10° S 15:17:10 57° W 15:21:46 10° NNW
Cosmos 1892 Rocket 4.3 15:13:27 10° N 15:17:11 31° ENE 15:17:11 31° ENE
CZ-4C R/B 2.8 15:13:10 10° W 15:18:04 49° NNW 15:21:56 22° NE
Spot 4 Rocket 3.9 15:13:37 10° SSE 15:18:41 71° ENE 15:23:47 10° NNW
Cosmos 1140 Rocket 3.8 15:16:48 10° SW 15:21:57 66° WNW 15:26:37 13° NNE
RESURS DK-1 4.4 15:18:53 10° NW 15:22:22 28° WSW 15:25:49 10° S
Cosmos 44 4.4 15:19:18 10° NW 15:23:43 31° N 15:25:21 25° NE
UNK 4.2 15:21:00 10° NNE 15:25:36 63° WNW 15:30:09 10° SSW
Resurs 1-3 3.4 15:22:50 10° SSE 15:27:05 66° ENE 15:31:23 10° N
BREEZE M DEB (TANK) 4.3 15:12:22 10° W 15:27:58 53° SSW 15:30:55 23° SE
SL-12 R/B(2) 4.4 15:20:33 10° SSW 15:28:40 67° SE 15:35:53 21° NE
Cosmos 1428 Rocket 4.4 15:24:47 10° N 15:31:04 73° ENE 15:37:22 10° SSE
CZ-4 R/B 4.5 15:27:37 10° S 15:31:35 74° WSW 15:35:34 10° NNW
Cosmos 304 Rocket 4.4 15:28:17 10° S 15:32:08 34° ESE 15:32:08 34° ESE
Cosmos 1536 Rocket 3.5 15:29:02 10° NNW 15:33:30 85° WSW 15:37:55 10° S
Cosmos 371 Rocket 3.9 15:29:41 10° S 15:33:34 34° ESE 15:33:34 34° ESE
Cosmos 1400 Rocket 3.2 15:33:41 10° S 15:36:28 40° SE 15:36:28 40° SE
Okean 2 Rocket 3.0 15:37:48 10° S 15:42:05 56° E 15:42:45 50° ENE
CARTOSAT-1 3.5 15:45:24 56° ENE 15:45:24 56° ENE 15:49:28 10° N
NOAA 6 3.9 15:41:42 10° SSE 15:46:50 79° ENE 15:52:00 10° NNW
Geosat 3.9 15:45:17 26° SE 15:48:13 86° NE 15:53:16 10° NNW
Timation 2 Rocket 4.1 15:41:56 10° SSW 15:48:50 89° SE 15:53:25 23° NE
COSMO-SKYMED 1 2.9 15:50:28 43° SSE 15:50:28 43° SSE 15:53:31 10° S
BREEZE-M DEB (TANK) 3.8 15:46:46 10° SW 15:49:40 45° SSE 15:50:40 39° ESE
Cosmos 1943 Rocket 2.1 15:45:14 10° SSW 15:50:51 88° WNW 15:53:47 30° NNE
ATLAS 2AS CENTAUR R/B 2.6 15:44:58 10° NW 15:51:50 78° NE 15:54:48 36° ESE
Resurs 01 Rocket 1.9 15:52:46 50° NE 15:52:46 50° NE 15:56:30 10° N
Cosmos 841 Rocket 3.7 15:47:18 10° NNW 15:52:34 71° WSW 15:57:47 10° SSE
ATLAS CENTAUR R/B 2.7 15:52:21 10° WNW 15:55:07 22° NNW 15:55:08 22° NNW
Cosmos 2082 Rocket 3.5 15:50:34 10° NW 15:55:48 41° WSW 16:01:00 10° S
Cosmos 2227 Rocket 3.9 15:52:00 10° NW 15:55:52 18° N 15:56:55 17° NNE
Cosmos 2251 Rocket 3.4 15:50:36 10° SSW 15:55:54 82° ESE 15:58:11 35° NNE
Cosmos 2058 4.3 15:53:15 10° NNW 15:56:56 37° W 16:00:37 10° SSW
Cosmos 2278 Rocket 2.2 15:58:22 10° SW 16:04:02 79° NW 16:06:42 33° NNE
Cosmos 1346 Rocket 3.1 16:01:07 10° NNW 16:04:11 56° NW 16:04:11 56° NW
Cosmos 1833 4.3 16:01:04 10° NNW 16:06:42 56° NE 16:07:08 55° ENE
Cosmos 1464 Rocket 4.0 16:01:10 10° SSW 16:07:27 82° WNW 16:13:42 10° N
Meteor 2-1 Rocket 4.2 16:05:34 10° S 16:11:25 67° E 16:15:01 25° NNE
Cosmos 2344 4.0 16:13:27 10° NW 16:21:05 70° SW 16:28:28 20° SSE
Cosmos 2034 Rocket 3.9 16:15:04 10° S 16:21:19 89° E 16:27:39 10° NNE
Cosmos 2263 Rocket 4.0 16:18:15 10° NW 16:22:03 18° N 16:22:33 18° NNE
Cosmos 1814 Rocket 4.1 16:17:50 10° NNW 16:22:35 63° NNE 16:22:35 63° NNE
Cosmos 1190 Rocket 4.1 16:18:40 10° SSW 16:23:57 76° WNW 16:25:14 52° NNE
ARIANE 6 FM1 Upper Stage 4.1 16:21:22 10° WNW 16:23:54 29° NNW 16:23:54 29° NNW
Cosmos 2151 Rocket 4.3 16:21:04 10° SSW 16:25:27 52° WNW 16:27:46 26° N
USA 281 3.1 16:24:35 47° SE 16:26:43 84° NE 16:33:21 10° NNW
Cosmos 676 Rocket 4.0 16:21:42 10° SSW 16:26:28 70° S 16:26:28 70° S
SKYMED 2 4.3 16:26:37 36° NNW 16:28:03 52° WNW 16:32:16 10° SW
Cosmos 1656 Rocket 4.5 16:23:07 10° SSW 16:26:36 37° S 16:26:36 37° S
Cosmos 1092 Rocket 4.0 16:23:49 10° NNW 16:30:07 77° W 16:36:17 10° S
COSMOS 2406 4.4 16:26:00 10° NW 16:31:15 40° WSW 16:36:30 10° S
Okean 1 Rocket 3.8 16:27:55 10° SSW 16:31:18 49° SW 16:31:18 49° SW
ISS -1.1 16:29:57 10° WSW 16:30:57 17° SW 16:30:57 17° SW
CSL-04 Rocket 4.3 16:36:42 45° N 16:36:42 45° N 16:40:36 10° NNW
Cosmos 2026 Rocket 4.2 16:29:10 10° NNW 16:35:11 65° W 16:41:15 10° S
Cosmos 1954 Rocket 4.1 16:31:10 10° SW 16:36:25 74° WNW 16:36:42 72° NNW
Sich 1 Rocket 4.2 16:33:16 10° SSW 16:37:30 57° W 16:37:30 57° W
Terra 4.3 16:42:57 11° N 16:42:57 11° N 16:43:05 10° N
SPOT 5 4.4 16:46:43 29° N 16:46:43 29° N 16:49:12 10° N
Cosmos 44 Rocket 3.9 16:43:31 10° WSW 16:47:38 55° WNW 16:47:38 55° WNW
SJ 16-02 2.7 16:45:04 10° SW 16:47:53 35° WSW 16:47:53 35° WSW
Cosmos 2297 Rocket 3.6 16:48:03 10° NNW 16:51:23 26° N 16:51:23 26° N
CZ-4C R/B 3.2 17:01:59 10° WNW 17:06:53 44° N 17:06:53 44° N
Resurs 01 Rocket 4.0 17:30:12 21° WNW 17:30:12 21° WNW 17:32:31 10° NW
Cosmos 1943 Rocket 3.7 17:30:26 10° W 17:35:17 30° NNW 17:35:17 30° NNW
Cosmos 2227 Rocket 4.2 17:36:37 10° NNW 17:38:42 20° NNW 17:38:42 20° NNW
ATLAS 2AS CENTAUR R/B 3.6 17:36:11 10° WNW 17:42:14 39° WSW 17:42:14 39° WSW
Cosmos 2278 Rocket 3.9 17:44:09 10° W 17:48:33 27° NW 17:48:33 27° NW
